| time (UTC) | temp C | wind direction | speed KPH | gust KPH | rain 1hr cm | rain 24hr cm | rain mn cm | humidity % | barometer mb |
| 20260505092526 | 11 | 255 | 0.0 | 0.0 | 0.00 | 0.03 | 0.00 | 90 | 1010.6 |
| 20260505091524 | 11 | 336 | 0.0 | 0.0 | 0.00 | 0.03 | 0.00 | 90 | 1010.6 |
| 20260505090523 | 11 | 173 | 0.0 | 0.0 | 0.00 | 0.03 | 0.00 | 90 | 1010.6 |
| 20260505085523 | 10 | 292 | 0.0 | 0.0 | 0.00 | 0.03 | 0.00 | 91 | 1010.5 |
| 20260505084524 | 10 | 102 | 0.0 | 0.0 | 0.00 | 0.03 | 0.00 | 91 | 1010.6 |
| 20260505083523 | 10 | 335 | 0.0 | 0.0 | 0.00 | 0.03 | 0.00 | 91 | 1010.6 |
| 20260505082524 | 10 | 323 | 0.0 | 0.0 | 0.00 | 0.03 | 0.00 | 91 | 1010.6 |
| 20260505081523 | 10 | 328 | 0.0 | 0.0 | 0.00 | 0.03 | 0.00 | 91 | 1010.8 |
| 20260505080522 | 10 | 127 | 0.0 | 0.0 | 0.00 | 0.03 | 0.00 | 91 | 1010.7 |
| 20260505075523 | 10 | 313 | 0.0 | 0.0 | 0.00 | 0.03 | 0.00 | 91 | 1010.6 |
| 20260505074520 | 10 | 232 | 0.0 | 0.0 | 0.00 | 0.03 | 0.00 | 90 | 1010.6 |
| 20260505073520 | 10 | 291 | 0.0 | 0.0 | 0.00 | 0.03 | 0.00 | 91 | 1010.6 |
| 20260505072519 | 10 | 355 | 0.0 | 0.0 | 0.00 | 0.03 | 0.00 | 91 | 1010.8 |
| 20260505071520 | 10 | 310 | 0.0 | 0.0 | 0.00 | 0.03 | 0.00 | 91 | 1010.9 |
| 20260505070519 | 10 | 261 | 0.0 | 0.0 | 0.00 | 0.03 | 0.00 | 91 | 1010.8 |
| 20260505065520 | 10 | 324 | 0.0 | 0.0 | 0.00 | 0.03 | 0.00 | 91 | 1010.8 |
| 20260505064520 | 10 | 344 | 0.0 | 0.0 | 0.00 | 0.03 | 0.00 | 91 | 1010.9 |
| 20260505063520 | 10 | 313 | 0.0 | 0.0 | 0.00 | 0.03 | 0.00 | 91 | 1011.0 |
| 20260505062519 | 10 | 355 | 0.0 | 0.0 | 0.00 | 0.03 | 0.00 | 91 | 1011.0 |
| 20260505062006 | 10 | 324 | 0.0 | 0.0 | 0.00 | 0.03 | 0.00 | 91 | 1011.0 |
| 20260505060521 | 10 | 24 | 0.0 | 0.0 | 0.00 | 0.03 | 0.00 | 91 | 1011.0 |
| 20260505055520 | 10 | 355 | 0.0 | 0.0 | 0.00 | 0.03 | 0.00 | 92 | 1010.7 |
| 20260505054520 | 10 | 243 | 0.0 | 0.0 | 0.00 | 0.03 | 0.00 | 92 | 1010.7 |
| 20260505053956 | 10 | 276 | 0.0 | 0.0 | 0.00 | 0.03 | 0.00 | 92 | 1010.7 |
| 20260505053005 | 10 | 71 | 0.0 | 0.0 | 0.00 | 0.03 | 0.00 | 92 | 1010.8 |
| 20260505051520 | 10 | 307 | 0.0 | 0.0 | 0.00 | 0.03 | 0.00 | 92 | 1010.8 |
| 20260505050521 | 10 | 313 | 0.0 | 0.0 | 0.00 | 0.03 | 0.00 | 92 | 1010.8 |
| 20260505041518 | 10 | 284 | 0.0 | 0.0 | 0.00 | 0.03 | 0.00 | 92 | 1011.0 |
| 20260505040518 | 10 | 25 | 0.0 | 0.0 | 0.00 | 0.03 | 0.00 | 92 | 1011.0 |
| 20260505035519 | 10 | 334 | 0.0 | 0.0 | 0.00 | 0.03 | 0.00 | 92 | 1011.3 |
| 20260505034518 | 10 | 326 | 0.0 | 0.0 | 0.00 | 0.03 | 0.00 | 92 | 1011.1 |
| 20260505033519 | 11 | 190 | 0.0 | 0.0 | 0.00 | 0.03 | 0.00 | 92 | 1011.2 |
| 20260505033002 | 11 | 169 | 0.0 | 0.0 | 0.00 | 0.03 | 0.00 | 92 | 1011.3 |
| 20260505032006 | 11 | 230 | 0.0 | 0.0 | 0.00 | 0.03 | 0.00 | 92 | 1011.5 |
| 20260505030519 | 11 | 274 | 0.0 | 0.0 | 0.00 | 0.03 | 0.00 | 92 | 1011.5 |
| 20260505025518 | 11 | 355 | 0.0 | 0.0 | 0.00 | 0.03 | 0.00 | 92 | 1011.5 |
| 20260505024951 | 11 | 258 | 0.0 | 0.0 | 0.00 | 0.03 | 0.00 | 92 | 1011.5 |
| 20260505023519 | 11 | 355 | 0.0 | 0.0 | 0.00 | 0.03 | 0.00 | 92 | 1011.7 |
| 20260505022517 | 11 | 355 | 0.0 | 0.0 | 0.00 | 0.03 | 0.00 | 92 | 1011.6 |
| 20260505021515 | 11 | 199 | 0.0 | 0.0 | 0.00 | 0.03 | 0.00 | 92 | 1011.6 |
| 20260505020957 | 11 | 94 | 0.0 | 0.0 | 0.00 | 0.03 | 0.00 | 92 | 1011.6 |
| 20260505015514 | 11 | 241 | 0.0 | 0.0 | 0.00 | 0.03 | 0.00 | 92 | 1011.6 |
| 20260505014515 | 11 | 335 | 0.0 | 0.0 | 0.00 | 0.03 | 0.00 | 93 | 1011.8 |
| 20260505013515 | 11 | 263 | 0.0 | 0.0 | 0.00 | 0.03 | 0.00 | 93 | 1011.9 |
| 20260505013148 | 11 | 112 | 0.0 | 0.0 | 0.00 | 0.03 | 0.00 | 93 | 1011.9 |
| 20260505013037 | 11 | 124 | 0.0 | 0.0 | 0.00 | 0.03 | 0.00 | 93 | 1011.9 |
| 20260505010514 | 11 | 55 | 0.0 | 0.0 | 0.00 | 0.03 | 0.00 | 93 | 1011.9 |
| 20260505005515 | 11 | 319 | 0.0 | 0.0 | 0.00 | 0.03 | 0.00 | 94 | 1012.0 |
| 20260505004514 | 11 | 340 | 0.0 | 0.0 | 0.00 | 0.03 | 0.00 | 94 | 1012.0 |
| 20260505003514 | 11 | 355 | 0.0 | 0.0 | 0.00 | 0.03 | 0.00 | 94 | 1012.0 |
| 20260505002513 | 11 | 305 | 0.0 | 0.0 | 0.00 | 0.03 | 0.00 | 95 | 1012.0 |
| 20260505001513 | 11 | 84 | 0.0 | 0.0 | 0.00 | 0.03 | 0.00 | 94 | 1011.9 |
| 20260505000512 | 11 | 355 | 0.0 | 0.0 | 0.00 | 0.03 | 0.00 | 95 | 1012.0 |
| 20260504235512 | 11 | 336 | 0.0 | 0.0 | 0.00 | 0.03 | 0.00 | 95 | 1012.2 |
| 20260504234511 | 12 | 287 | 0.0 | 0.0 | 0.00 | 0.03 | 0.00 | 95 | 1012.2 |
| 20260504233512 | 12 | 315 | 0.0 | 0.0 | 0.00 | 0.03 | 0.00 | 95 | 1012.3 |
| 20260504233447 | 12 | 327 | 0.0 | 0.0 | 0.00 | 0.03 | 0.00 | 95 | 1012.3 |
| 20260504231512 | 12 | 318 | 0.0 | 0.0 | 0.00 | 0.03 | 0.00 | 95 | 1012.2 |
| 20260504230517 | 12 | 355 | 0.0 | 0.0 | 0.00 | 0.03 | 0.00 | 95 | 1012.3 |
| 20260504225511 | 12 | 319 | 0.0 | 0.0 | 0.00 | 0.03 | 0.00 | 95 | 1012.4 |
| 20260504224513 | 12 | 332 | 0.0 | 0.0 | 0.00 | 0.03 | 0.00 | 95 | 1012.4 |
| 20260504223509 | 11 | 26 | 0.0 | 0.0 | 0.00 | 0.03 | 0.00 | 95 | 1012.6 |
| 20260504222508 | 11 | 340 | 0.0 | 0.0 | 0.00 | 0.03 | 0.00 | 95 | 1012.6 |
| 20260504221508 | 11 | 340 | 0.0 | 0.0 | 0.00 | 0.03 | 0.00 | 95 | 1012.6 |
| 20260504220508 | 11 | 340 | 0.0 | 0.0 | 0.00 | 0.03 | 0.00 | 95 | 1012.7 |
| 20260504215509 | 11 | 0 | 0.0 | 0.0 | 0.00 | 0.03 | 0.03 | 95 | 1012.8 |
| 20260504214508 | 11 | 9 | 0.0 | 0.0 | 0.00 | 0.03 | 0.03 | 95 | 1013.2 |
| 20260504213509 | 11 | 56 | 0.0 | 0.0 | 0.00 | 0.03 | 0.03 | 94 | 1013.1 |
| 20260504212943 | 11 | 65 | 0.0 | 0.0 | 0.00 | 0.03 | 0.03 | 94 | 1013.2 |
| 20260504211507 | 11 | 346 | 0.0 | 0.0 | 0.00 | 0.03 | 0.03 | 94 | 1013.4 |
| 20260504210506 | 11 | 346 | 0.0 | 0.0 | 0.00 | 0.03 | 0.03 | 94 | 1013.4 |
| 20260504205941 | 11 | 306 | 0.0 | 0.0 | 0.00 | 0.03 | 0.03 | 94 | 1013.3 |
| 20260504204503 | 11 | 169 | 0.0 | 0.0 | 0.00 | 0.03 | 0.03 | 93 | 1013.3 |
| 20260504203503 | 11 | 278 | 0.0 | 0.0 | 0.00 | 0.03 | 0.03 | 93 | 1013.4 |
| 20260504202940 | 11 | 344 | 0.0 | 0.0 | 0.00 | 0.03 | 0.03 | 93 | 1013.5 |
| 20260504201501 | 11 | 296 | 0.0 | 0.0 | 0.00 | 0.10 | 0.03 | 93 | 1013.6 |
| 20260504200943 | 11 | 150 | 0.0 | 0.0 | 0.00 | 0.23 | 0.03 | 92 | 1013.6 |
| 20260504195457 | 11 | 339 | 0.0 | 0.0 | 0.00 | 0.30 | 0.03 | 92 | 1013.3 |
| 20260504194456 | 11 | 347 | 0.0 | 0.0 | 0.00 | 0.33 | 0.03 | 92 | 1013.1 |
| 20260504193456 | 11 | 323 | 0.0 | 0.0 | 0.00 | 0.41 | 0.03 | 92 | 1013.0 |
| 20260504192455 | 11 | 339 | 0.0 | 0.0 | 0.00 | 0.41 | 0.03 | 92 | 1013.1 |
| 20260504191455 | 11 | 298 | 0.0 | 0.0 | 0.00 | 0.41 | 0.03 | 92 | 1013.1 |
| 20260504190945 | 11 | 296 | 0.0 | 0.0 | 0.00 | 0.41 | 0.03 | 92 | 1013.1 |
| 20260504185458 | 11 | 246 | 0.0 | 0.0 | 0.00 | 0.41 | 0.03 | 92 | 1013.1 |
| 20260504184453 | 11 | 327 | 0.0 | 0.0 | 0.00 | 0.41 | 0.03 | 91 | 1013.2 |
| 20260504183453 | 11 | 13 | 0.0 | 0.0 | 0.00 | 0.41 | 0.03 | 91 | 1013.2 |
| 20260504182939 | 11 | 265 | 0.0 | 0.0 | 0.00 | 0.41 | 0.03 | 91 | 1012.9 |
| 20260504181455 | 11 | 331 | 0.0 | 0.0 | 0.00 | 0.41 | 0.03 | 91 | 1013.0 |
| 20260504180456 | 11 | 295 | 0.0 | 0.0 | 0.00 | 0.41 | 0.03 | 91 | 1013.1 |
| 20260504175450 | 11 | 343 | 0.0 | 0.0 | 0.00 | 0.41 | 0.03 | 90 | 1013.0 |
| 20260504174451 | 11 | 275 | 0.0 | 0.0 | 0.00 | 0.41 | 0.03 | 90 | 1013.1 |
| 20260504173449 | 11 | 314 | 0.0 | 0.0 | 0.00 | 0.41 | 0.03 | 91 | 1013.0 |
| 20260504172447 | 11 | 295 | 0.0 | 0.0 | 0.00 | 0.41 | 0.03 | 90 | 1013.0 |
| 20260504171920 | 11 | 346 | 0.0 | 0.0 | 0.00 | 0.41 | 0.03 | 90 | 1012.9 |
| 20260504170447 | 11 | 274 | 0.0 | 0.0 | 0.00 | 0.41 | 0.03 | 90 | 1013.1 |
| 20260504160447 | 12 | 328 | 0.0 | 0.0 | 0.00 | 0.41 | 0.03 | 90 | 1012.8 |
| 20260504150447 | 13 | 268 | 0.0 | 0.0 | 0.03 | 0.43 | 0.03 | 87 | 1012.9 |
| 20260504140443 | 16 | 242 | 0.0 | 0.0 | 0.00 | 1.07 | 0.00 | 83 | 1013.0 |
| 20260504130440 | 16 | 318 | 0.0 | 0.0 | 0.00 | 1.07 | 0.00 | 81 | 1013.2 |
| 20260504110434 | 14 | 317 | 0.0 | 0.0 | 0.00 | 1.12 | 0.00 | 88 | 1013.7 |